COSMOS 2251 DEB, 34944

Orbit data source: Space-Track

COSMOS 2251 DEB, 34944 is space debris in LEO originally from a launch on Wed, 16 Jun 1993 UTC launched from the Plesetsk Missile And Space Complex (PKMTR). The debris from Iridium 33, an American commercial communications satellite, has been tracked extensively since its accidental collision with the defunct Russian satellite Cosmos 2251 in 2009. This event, occurring at high speed in low Earth orbit (LEO), generated thousands of pieces of space debris, significantly increasing the risk of further collisions. The Iridium 33 debris cloud has impacted space traffic management and orbital debris mitigation strategies, making it a subject of ongoing study in space situational awareness.

Loading next visibility...
Identifier
34944, 1993-036ADX
Orbit
LEO
Country
Flag of CISCIS
Related business
Manufacturer
Unknown
Mission
Spacecraft
Bus & Motor
Unknown
Mass
Unknown
Launch date (UTC)
1993-06-16 (33 years ago)
Launch vehicle
Unknown
Launch site
Plesetsk Missile And Space Complex (PKMTR)
Object type
Payload
Rocket body
Debris
Shape & HBR
Unknown shape, 0.1 m
Radar Cross Section
Small (<0.1 m²)

Expand to show TLE details & history
Last TLE update: 9 hours ago

TLE from 9 hours ago
0 COSMOS 2251 DEB
1 34944U 93036ADX 26038.21897078  .00001883  00000-0  78963-3 0  9992
2 34944  73.7481 130.1312 0221623 328.2757  30.5181 14.14336649648813
Epoch: 2026-02-07T05:15Z
TLE epoch observation values (Epoch: 2026-02-07T05:15:19.075Z)
Latitude
-0.00004°
Longitude
-86.04393°
Altitude
710.164 km
Speed
7.572 km/s
True Right ascension
08h 40m 31s
True Declination
0° 00' 00"
Sunlit
Object was in full shadow at epoch
Visualization orbit readout
Latitude
Unknown
Longitude
Unknown
Altitude
Unknown
Speed
Unknown
Apparent Right ascension
Unknown
Apparent Declination
Unknown
Sunlit
N/A
Visualization observer readout
Local Sidereal Time
16:52:37
Azimuth
Unknown
Elevation
Unknown
Doppler factor
Unknown
Orbital elements
Apogee altitude
1,002.261 km
Perigee altitude
682.22 km
Semi-major axis
7,220.377 km
Eccentricity
0.02216
Inclination
73.7481°
RAAN
130.1312°
Arg. of periapsis
328.2757°
True anomaly
31.83912°
Mean anomaly
30.5181°
Eccentric anomaly
31.17543°
Mean motion
3.53756 °/min
Orbital period
101.77 mins
BSTAR
0.00078963
Loading maneuver chart data...
Computing Atmospheric mass density...
Loading historical data...
Loading historical data...
Loading historical data...
Loading historical data...
Loading historical data...
Loading historical data...
Loading historical data...

Documentation

Showing up to 5 results
|